This is the latest recevied weather packets stored in our database for station/object KC5EZZ-2. If no packets are shown the sender has not sent any weather packets the latest 10 day(s).
| Time | Temp. | Humidity | Pressure | Rain* | Wind** | Luminosity | Snow |
|---|---|---|---|---|---|---|---|
| 1777551377 | 13.33° C | - | - | 0 mm | 2.68 m/s, 314° | - | - |
| 1777551077 | 13.33° C | - | - | 0 mm | 2.68 m/s, 287° | - | - |
| 1777550778 | 13.33° C | - | - | 0 mm | 1.79 m/s, 259° | - | - |
| 1777550475 | 13.33° C | - | - | 0 mm | 1.79 m/s, 285° | - | - |
| 1777550176 | 13.33° C | - | - | 0 mm | 1.79 m/s, 4° | - | - |
| 1777549876 | 13.33° C | - | - | 0 mm | 1.79 m/s, 322° | - | - |
| 1777549574 | 13.33° C | - | - | 0 mm | 1.79 m/s, 293° | - | - |
| 1777549274 | 13.33° C | - | - | 0 mm | 2.24 m/s, 356° | - | - |
| 1777548673 | 13.33° C | - | - | 0 mm | 4.02 m/s, 34° | - | - |
| 1777548373 | 13.89° C | - | - | 0 mm | 5.36 m/s, 25° | - | - |
| 1777548074 | 13.89° C | - | - | 0 mm | 3.58 m/s, 38° | - | - |
| 1777547771 | 13.89° C | - | - | 0 mm | 0 m/s | - | - |
| 1777547172 | 13.89° C | - | - | 0 mm | 4.02 m/s, 308° | - | - |
| 1777546870 | 13.89° C | - | - | 0 mm | 3.13 m/s, 318° | - | - |
| 1777546570 | 13.89° C | - | - | 0 mm | 1.79 m/s, 345° | - | - |
| 1777546271 | 13.89° C | - | - | 0 mm | 3.58 m/s, 70° | - | - |
| 1777545969 | 13.89° C | - | - | 0 mm | 2.68 m/s, 79° | - | - |
| 1777545669 | 13.89° C | - | - | 0 mm | 5.36 m/s, 91° | - | - |
| 1777545370 | 13.89° C | - | - | 0 mm | 5.36 m/s, 53° | - | - |
| 1777545067 | 13.89° C | - | - | 0 mm | 4.02 m/s, 48° | - | - |
| 1777544768 | 13.89° C | - | - | 0 mm | 2.68 m/s, 38° | - | - |
| 1777544469 | 14.44° C | - | - | 0 mm | 1.79 m/s, 17° | - | - |
| 1777544166 | 13.89° C | - | - | 0 mm | 4.47 m/s, 53° | - | - |
| 1777543867 | 13.89° C | - | - | 0 mm | 4.02 m/s, 41° | - | - |
| 1777543567 | 13.89° C | - | - | 0 mm | 2.68 m/s, 23° | - | - |
* Rain latest hour (hover to see other rain measurements)
** Current wind speed in m/s (hover to see current wind gust speed)